Starlink 32175

operational
NORAD ID: 60339 Int'l Des: 2024-136 Owner: SPXS Country: US Constellation: starlink
LEOCIRCULAR

About Starlink 32175

Description loading...

Live Position

Loading 3D Globe...

Upcoming Passes

Altitude History

Altitude vs Time

uPlot chart will show altitude changes over time

Two-Line Element Set

1 60339U 24136L 25261.12486984 .00005889 00000-0 21092-3 0 9992
2 60339 53.1593 157.2499 0001018 46.1256 313.9829 15.30180381 63240
Epoch: Sep 18, 2025 • Age: 17 hours

Current Status

Altitude 476.1 km
Velocity 7.63 km/s
Sub-Earth Point 28.74°N, 126°W
Launch Date Aug 2, 2024
Age 1.1 years
Type internet

Technical Details

Classification Payload
Mass 730.00 kg
Dry Mass 700.00 kg
Total Mass 730.00 kg
Length 0.30 m
Diameter 4.10 m
Span 29.00 m
Shape Box + pan
Manufacturer SPXS
Bus Type Starlink V2M
Phase Status In Orbit
Owner/State SPXS/US

Large Constellations

Loading constellations...